Find Kosmos-650

NORAD ID: 7281 Int'l Des: 1974-028 Owner: VTS Country: SU operational
LEOCIRCULAR

Live Position

Loading 3D Globe...

About Kosmos-650

Description loading...

Upcoming Passes

Passes for default location (London). Set your location on the main map for personalized predictions.

Altitude History

Loading altitude history...

Two-Line Element Set

1 7281U 74028A 26110.42795852 -.00000019 00000-0 -13992-4 0 9991
2 7281 74.0403 271.8634 0020960 157.4547 230.8713 12.69567240408849
Epoch: Apr 20, 2026 • Age: 12 hours

Current Status

Altitude 1388.5 km
Velocity 7.18 km/s
Sub-Earth Point 73.64°N, 163.1°W
Type other

Most Searched